Darwin, Australia

6:00 AM ACST on December 03, 2016 (GMT +0930)
Darwin

Weather History for 94120 - February, 2014

Change the Weather History Date:

Monday, February 17, 2014

  Actual Average Record
Temperature  
Mean Temperature 79 °F -  
Max Temperature 85 °F - - ()
Min Temperature 71 °F - - ()
Cooling Degree Days 14    
Growing Degree Days 29 (Base 50)    
Moisture  
Dew Point 76 °F    
Average Humidity 89    
Maximum Humidity 100    
Minimum Humidity 69    
Precipitation  
Precipitation 4.13 in - - ()
Sea Level Pressure  
Sea Level Pressure 29.73 in    
Wind  
Wind Speed 12 mph ()    
Max Wind Speed 22 mph    
Max Gust Speed 36 mph    
Visibility 5.1 miles    
Events Rain , Thunderstorm    
T = Trace of Precipitation, MM = Missing Value Source: Averaged Metar Reports

Daily Weather History Graph

Daily Weather History Graph

Search for Another Location

Airport or City:

Trip Planner

Search our weather history database for the weather conditions in past years. The results will help you decide how hot, cold, wet, or windy it might be!

Date:

Astronomy

Feb. 17, 2014 Rise Set
Actual Time 6:46 AM ACST 7:14 PM ACST
Civil Twilight 6:24 AM ACST 7:36 PM ACST
Nautical Twilight 5:59 AM ACST 8:01 PM ACST
Astronomical Twilight 5:33 AM ACST 8:27 PM ACST
Moon 8:37 PM ACST (2/17) 8:15 AM ACST (2/17)
Length of Visible Light 13h 11m
Length of Day
12h 28m
Waning Gibbous, 96% of the Moon is Illuminated
Feb 17
Waning Gibbous
Feb 23
Last Quarter
Mar 1
New
Mar 8
First Quarter
Mar 17
Full

Hourly Weather History & Observations

Time (ACST) Temp. Heat Index Dew Point Humidity Pressure Visibility Wind Dir Wind Speed Gust Speed Precip Events Conditions
12:00 AM 82 °F - 77 °F 79% 29.78 in 19 mi West 12.7 mph - -   Partly Cloudy
12:00 AM 82.4 °F 90.9 °F 77.0 °F 84% 29.77 in 6.2 mi West 12.7 mph - N/A   Mostly Cloudy
12:30 AM 82 °F - 77 °F 80% 29.77 in - West 13.8 mph - -  
12:30 AM 82.4 °F 90.9 °F 77.0 °F 84% 29.77 in 6.2 mi West 13.8 mph - N/A   Mostly Cloudy
1:00 AM 82.4 °F 90.9 °F 77.0 °F 84% 29.77 in 6.2 mi WSW 11.5 mph - N/A   Mostly Cloudy
1:30 AM 82.4 °F 90.9 °F 77.0 °F 84% 29.74 in 6.2 mi WSW 12.7 mph - N/A   Mostly Cloudy
2:00 AM 82.4 °F 90.9 °F 77.0 °F 84% 29.74 in 6.2 mi WSW 11.5 mph - N/A   Mostly Cloudy
2:30 AM 82.4 °F 90.9 °F 77.0 °F 84% 29.74 in 6.2 mi West 10.4 mph - N/A   Mostly Cloudy
3:00 AM 82 °F - 77 °F 80% 29.73 in 12 mi West 12.7 mph - -   Haze
3:00 AM 82.4 °F 90.9 °F 77.0 °F 84% 29.71 in 6.2 mi West 12.7 mph - N/A   Mostly Cloudy
3:30 AM 82 °F - 77 °F 81% 29.74 in - West 12.7 mph - -  
3:30 AM 82.4 °F 90.9 °F 77.0 °F 84% 29.74 in 6.2 mi West 12.7 mph - N/A   Mostly Cloudy
4:00 AM 82.4 °F 90.9 °F 77.0 °F 84% 29.74 in 6.2 mi West 10.4 mph - N/A   Mostly Cloudy
4:30 AM 82.4 °F 90.9 °F 77.0 °F 84% 29.74 in 6.2 mi West 11.5 mph - N/A   Mostly Cloudy
5:00 AM 82.4 °F 90.9 °F 77.0 °F 84% 29.74 in 6.2 mi West 11.5 mph - N/A   Mostly Cloudy
5:30 AM 82.4 °F 90.9 °F 77.0 °F 84% 29.71 in 6.2 mi West 11.5 mph - N/A   Mostly Cloudy
6:00 AM 82 °F - 76 °F 78% 29.71 in 12 mi West 12.7 mph - -   Haze
6:00 AM 82.4 °F 90.9 °F 77.0 °F 84% 29.71 in 6.2 mi West 12.7 mph - N/A   Mostly Cloudy
6:30 AM 82 °F - 77 °F 79% 29.71 in - West 17.3 mph - -  
6:30 AM 82.4 °F 90.9 °F 77.0 °F 84% 29.71 in 6.2 mi West 17.3 mph - N/A   Mostly Cloudy
7:00 AM 82.4 °F 90.9 °F 77.0 °F 84% 29.71 in 6.2 mi West 16.1 mph - N/A   Mostly Cloudy
7:30 AM 82.4 °F 89.5 °F 75.2 °F 79% 29.74 in 6.2 mi West 15.0 mph - N/A   Mostly Cloudy
8:00 AM 84.2 °F 92.3 °F 75.2 °F 74% 29.74 in 6.2 mi West 15.0 mph - N/A   Mostly Cloudy
8:30 AM 84.2 °F 94.1 °F 77.0 °F 79% 29.77 in 6.2 mi WSW 15.0 mph - N/A   Mostly Cloudy
9:00 AM 85 °F - 76 °F 69% 29.77 in 19 mi West 15.0 mph - -   Partly Cloudy
9:00 AM 84.2 °F 94.1 °F 77.0 °F 79% 29.77 in 6.2 mi West 15.0 mph - N/A   Mostly Cloudy
9:30 AM 84 °F - 77 °F 75% 29.77 in - West 15.0 mph - -  
9:30 AM 84.2 °F 94.1 °F 77.0 °F 79% 29.77 in 3.7 mi West 15.0 mph - N/A Rain , Thunderstorm Light Rain Showers
9:32 AM 82.4 °F 92.4 °F 78.8 °F 89% 29.77 in 1.2 mi SW 21.9 mph - N/A Rain , Thunderstorm Rain Showers
9:39 AM 78.8 °F - 77.0 °F 94% 29.77 in 1.9 mi WSW 19.6 mph 33.4 mph N/A Rain , Thunderstorm Light Rain Showers
9:42 AM 78.8 °F - 77.0 °F 94% 29.77 in 1.9 mi WSW 20.7 mph 33.4 mph N/A Rain , Thunderstorm Light Thunderstorms and Rain
10:00 AM 77.0 °F - 75.2 °F 94% 29.80 in 1.9 mi SW 19.6 mph - N/A Rain , Thunderstorm Thunderstorms and Rain
10:15 AM 77.0 °F - 75.2 °F 94% 29.77 in 3.7 mi SW 15.0 mph - N/A Rain , Thunderstorm Light Rain Showers
10:30 AM 77.0 °F - 73.4 °F 89% 29.77 in 1.9 mi WSW 10.4 mph - N/A Rain Light Rain Showers
10:42 AM 77.0 °F - 75.2 °F 94% 29.77 in 4.3 mi West 10.4 mph - N/A   Mostly Cloudy
11:00 AM 78.8 °F - 77.0 °F 94% 29.74 in 3.1 mi West 6.9 mph - N/A Rain Light Rain Showers
11:30 AM 80.6 °F 88.1 °F 78.8 °F 94% 29.74 in 5.6 mi West 10.4 mph - N/A Rain Light Rain
12:00 PM 81 °F - 79 °F 91% 29.75 in 10 mi West 9.2 mph - -   Mostly Cloudy
12:00 PM 80.6 °F 88.1 °F 78.8 °F 94% 29.74 in 6.2 mi West 9.2 mph - N/A   Mostly Cloudy
12:30 PM 82 °F - 79 °F 87% 29.73 in - West 10.4 mph - -  
12:30 PM 82.4 °F 92.4 °F 78.8 °F 89% 29.74 in 5.0 mi West 10.4 mph - N/A   Partly Cloudy
12:40 PM 77.0 °F - 73.4 °F 89% 29.74 in 3.1 mi SSW 18.4 mph - N/A Rain Rain Showers
12:56 PM 75.2 °F - 73.4 °F 94% 29.71 in 1.2 mi SSE 16.1 mph - N/A Rain , Thunderstorm Heavy Rain Showers
1:00 PM 75.2 °F - 73.4 °F 94% 29.71 in 1.9 mi SSE 3.5 mph - N/A Rain , Thunderstorm Heavy Rain Showers
1:15 PM 75.2 °F - 75.2 °F 100% 29.71 in 1.9 mi SW 11.5 mph - N/A Rain , Thunderstorm Thunderstorms and Rain
1:30 PM 75.2 °F - 75.2 °F 100% 29.71 in 3.1 mi West 13.8 mph - N/A Rain , Thunderstorm Light Thunderstorms and Rain
1:46 PM 75.2 °F - 73.4 °F 94% 29.71 in 4.3 mi WNW 11.5 mph - N/A Rain , Thunderstorm Light Rain Showers
2:00 PM 77.0 °F - 75.2 °F 94% 29.71 in 6.2 mi West 11.5 mph - N/A Thunderstorm Partly Cloudy
2:19 PM 77.0 °F - 75.2 °F 94% 29.71 in 4.3 mi WNW 11.5 mph - N/A Rain Light Rain Showers
2:30 PM 77.0 °F - 75.2 °F 94% 29.71 in 4.3 mi West 18.4 mph - N/A Rain Light Rain Showers
2:42 PM 77.0 °F - 75.2 °F 94% 29.68 in 1.9 mi West 18.4 mph - N/A Rain , Thunderstorm Light Rain Showers
3:00 PM 76 °F - 75 °F 96% 29.68 in 4 mi WNW 15.0 mph - - Rain Light Rain Showers
3:00 PM 77.0 °F - 75.2 °F 94% 29.68 in 3.7 mi WNW 15.0 mph - N/A Rain Light Rain Showers
3:30 PM 77 °F - 75 °F 91% 29.68 in - West 11.5 mph - -  
3:30 PM 77.0 °F - 75.2 °F 94% 29.68 in 5.0 mi West 11.5 mph - N/A Rain Light Rain
4:00 PM 78.8 °F - 77.0 °F 94% 29.65 in 5.6 mi WNW 11.5 mph - N/A Rain Light Rain
4:12 PM 78.8 °F - 77.0 °F 94% 29.65 in 2.5 mi WNW 10.4 mph - N/A Rain , Thunderstorm Light Rain Showers
4:30 PM 78.8 °F - 77.0 °F 94% 29.65 in 3.1 mi West 15.0 mph - N/A Rain Light Rain Showers
5:00 PM 80.6 °F 88.1 °F 78.8 °F 94% 29.65 in 3.7 mi West 12.7 mph - N/A Rain Light Rain Showers
5:30 PM 78.8 °F - 78.8 °F 100% 29.65 in 3.1 mi WNW 16.1 mph - N/A Rain Rain
6:00 PM 80 °F - 78 °F 93% 29.65 in 3 mi West 16.1 mph - - Rain Rain
6:00 PM 80.6 °F 88.1 °F 78.8 °F 94% 29.65 in 3.1 mi West 16.1 mph - N/A Rain Rain
6:30 PM 80 °F - 78 °F 92% 29.66 in - West 18.4 mph - -  
6:30 PM 80.6 °F 88.1 °F 78.8 °F 94% 29.65 in 3.1 mi West 18.4 mph - N/A Rain Rain
7:00 PM 80.6 °F 87.1 °F 77.0 °F 89% 29.68 in 3.1 mi West 16.1 mph - N/A Rain Rain
7:30 PM 80.6 °F 88.1 °F 78.8 °F 94% 29.71 in 5.0 mi West 9.2 mph - N/A Rain Light Rain
8:00 PM 78.8 °F - 78.8 °F 100% 29.71 in 6.2 mi West 6.9 mph - N/A Rain Light Rain
8:30 PM 80.6 °F 88.1 °F 78.8 °F 94% 29.71 in 6.2 mi West 9.2 mph - N/A Rain Light Rain
9:00 PM 80 °F - 76 °F 86% 29.72 in 6 mi West 11.5 mph - - Rain Light Rain
9:00 PM 78.8 °F - 77.0 °F 94% 29.71 in 6.2 mi West 11.5 mph - N/A Rain Light Rain
9:30 PM 80 °F - 78 °F 91% 29.75 in - West 10.4 mph - -  
9:30 PM 80.6 °F 87.1 °F 77.0 °F 89% 29.74 in 5.0 mi West 10.4 mph - N/A Rain Rain
10:00 PM 78.8 °F - 77.0 °F 94% 29.77 in 6.2 mi West 10.4 mph - N/A Rain Light Rain
10:30 PM 78.8 °F - 77.0 °F 94% 29.77 in 6.2 mi SW 11.5 mph - N/A Rain Light Rain
11:00 PM 77.0 °F - 73.4 °F 89% 2.95 in 3.7 mi South 9.2 mph - N/A Rain Light Rain
11:11 PM 77.0 °F - 75.2 °F 94% 29.77 in 1.9 mi WSW 17.3 mph - N/A Rain Rain
11:18 PM 75.2 °F - 73.4 °F 94% 29.77 in 1.2 mi SW 17.3 mph 35.7 mph N/A Rain Light Rain Showers
11:30 PM 73.4 °F - 73.4 °F 100% 29.77 in 1.9 mi South 19.6 mph - N/A Rain Heavy Rain Showers
11:40 PM 71.6 °F - 71.6 °F 100% 29.80 in 0.9 mi South 21.9 mph - N/A Rain Heavy Rain Showers